Home   Weather   Gevelsberg   Past weeks

Flag for Germany Past Weather in Gevelsberg, North Rhine-Westphalia, Germany — Yesterday and Last 2 Weeks

45 °F

Partly sunny.

Feels Like: 45 °F
Forecast: 35 / 49 °F
Wind: 2 mph from Northeast

Location: Dortmund / Wickede

Current Time: Oct 22, 2016 at 6:17:25 PM

Latest Report: Oct 22, 2016 at 5:50 PM

Visibility: N/A

Pressure: 29.95 "Hg

Humidity: 81%

Dew Point: 39 °F

Location of GevelsbergLocation

Past Weather in Gevelsberg — Graph


Gevelsberg Temperature Yesterday

Maximum temperature yesterday: 46 °F (at 4:20 PM)
Minimum temperature yesterday: 41 °F (at 8:50 AM)
Average temperature yesterday: 43 °F

High & Low Weather Summary for the Past Weeks

High66 °F (Oct 16, 3:20 PM)94% (Oct 18, 7:50 AM)30.27 "Hg (Oct 18, 7:50 AM)
Low34 °F (Oct 11, 6:20 AM)40% (Oct 16, 3:20 PM)29.65 "Hg (Oct 15, 5:20 AM)
Average48 °F77%30.04 "Hg
* Reported Oct 7 4:20 PM — Oct 22 4:50 PM, Gevelsberg, Weather by CustomWeather, © 2016

Note: Actual official high and low records may vary slightly from our data, if they occured in-between our weather recording intervals... More about our weather records


Gevelsberg Weather History for the Previous 24 Hours

Scroll right to see more
Time TempWeatherWind HumidityBarometerVisibility
4:50 PM
Sat, Oct 22
45 °FPartly sunny.2 mph81%29.95 "HgN/A
4:20 PM45 °FBroken clouds.2 mph81%29.92 "HgN/A
3:50 PM45 °FBroken clouds.2 mph81%29.92 "HgN/A
3:20 PM45 °FPartly sunny.2 mph81%29.92 "HgN/A
2:50 PM45 °FPartly sunny.3 mph81%29.92 "HgN/A
2:20 PM45 °FBroken clouds.3 mph81%29.92 "HgN/A
1:50 PM45 °FBroken clouds.3 mph81%29.92 "HgN/A
1:20 PM45 °FBroken clouds.2 mph81%29.92 "HgN/A
12:50 PM46 °FBroken clouds.3 mph76%29.92 "HgN/A
12:20 PM45 °FBroken clouds.5 mph81%29.92 "Hg6 mi
11:50 AM45 °FPartly sunny.6 mph81%29.92 "Hg6 mi
11:20 AM45 °FPartly sunny.5 mph81%29.92 "Hg5 mi
10:50 AM43 °FPartly sunny.5 mph87%29.92 "Hg6 mi
10:20 AM43 °FPartly sunny.3 mph93%29.92 "Hg4 mi
9:50 AM43 °FLow clouds.3 mph93%29.92 "Hg4 mi
9:20 AM43 °FFog.2 mph93%29.89 "Hg2 mi
8:50 AM43 °FFog.3 mph93%29.89 "Hg3 mi
8:20 AM43 °FFog.3 mph93%29.89 "Hg3 mi
7:50 AM45 °FPassing clouds.3 mph87%29.89 "Hg4 mi
7:20 AM45 °FPassing clouds.3 mph87%29.89 "Hg5 mi
6:50 AM45 °FPassing clouds.3 mph87%29.89 "Hg5 mi
6:20 AM45 °FPassing clouds.2 mph87%29.86 "Hg5 mi
5:50 AM45 °FPartly cloudy.2 mph87%29.86 "Hg4 mi
5:20 AM45 °FLight rain. Fog.3 mph87%29.86 "Hg3 mi
9:50 PM
Fri, Oct 21
43 °FLight rain. Fog.5 mph87%29.92 "Hg2 mi
9:20 PM43 °FLight rain. Fog.12 mph87%29.92 "Hg2 mi
8:50 PM43 °FLight rain. Fog.13 mph87%29.92 "Hg2 mi
8:20 PM43 °FLight rain. Fog.14 mph87%29.92 "Hg3 mi
7:50 PM43 °FLight rain. Fog.14 mph87%29.92 "Hg3 mi
7:20 PM43 °FLight rain. Fog.12 mph87%29.92 "Hg3 mi
6:50 PM43 °FLight rain. Passing clouds.10 mph87%29.92 "Hg4 mi
6:20 PM43 °FLight rain. Partly sunny.12 mph87%29.92 "Hg4 mi
Weather by CustomWeather, © 2016

See weather overviewHow to use our weather pages